Actual water levels and discharges of Vltava river

Praha-Chuchle

Date and time (UTC) H (cm) Q (m3/s)
19. 4. 2019 23:00 51 68
19. 4. 2019 22:00 50 65
19. 4. 2019 21:00 50 65
19. 4. 2019 20:00 50 65
19. 4. 2019 19:00 50 65
19. 4. 2019 18:00 50 65
19. 4. 2019 17:00 50 65
19. 4. 2019 16:00 51 68
19. 4. 2019 15:00 51 68
19. 4. 2019 14:00 51 68
19. 4. 2019 13:00 53 75
19. 4. 2019 12:00 56 87
19. 4. 2019 11:00 58 95

H - vodni stav, Q - discharge
more information

VD Vrané nad Vltavou

Date and time (UTC) H (m n. m.) Q (m3/s)
19. 4. 2019 23:10 200 50
19. 4. 2019 23:00 200 50
19. 4. 2019 22:00 200 50
19. 4. 2019 21:00 200 50
19. 4. 2019 20:00 200 50
19. 4. 2019 19:00 200 50
19. 4. 2019 18:00 199 50
19. 4. 2019 17:00 199 50
19. 4. 2019 16:00 200 50
19. 4. 2019 15:00 200 50
19. 4. 2019 14:00 200 50
19. 4. 2019 13:00 200 50
19. 4. 2019 12:00 200 50
19. 4. 2019 11:00 200 50

H - water level, Q - outflow

VD Štěchovice

Date and time (UTC) H (m n. m.) Q (m3/s)
19. 4. 2019 23:10 217 69
19. 4. 2019 23:00 217 70
19. 4. 2019 22:00 217 69
19. 4. 2019 21:00 217 70
19. 4. 2019 20:00 217 69
19. 4. 2019 19:00 217 70
19. 4. 2019 18:00 217 50
19. 4. 2019 17:00 217 0
19. 4. 2019 16:00 217 0
19. 4. 2019 15:00 217 0
19. 4. 2019 14:00 217 0
19. 4. 2019 13:00 217 0
19. 4. 2019 12:00 217 0
19. 4. 2019 11:00 217 20

H - water level, Q - outflow

VD Slapy

Date and time (UTC) H (m n. m.) Q (m3/s)
19. 4. 2019 23:10 270 56
19. 4. 2019 23:00 270 58
19. 4. 2019 22:00 270 134
19. 4. 2019 21:00 270 133
19. 4. 2019 20:00 270 85
19. 4. 2019 19:00 270 106
19. 4. 2019 18:00 270 0
19. 4. 2019 17:00 270 0
19. 4. 2019 16:00 270 0
19. 4. 2019 15:00 270 0
19. 4. 2019 14:00 270 0
19. 4. 2019 13:00 270 0
19. 4. 2019 12:00 270 0
19. 4. 2019 11:00 270 0

H - water level, Q - outflow

VD Kamýk

Date and time (UTC) H (m n. m.) Q (m3/s)
19. 4. 2019 23:10 283 -
19. 4. 2019 23:00 283 -
19. 4. 2019 22:00 283 -
19. 4. 2019 21:00 283 -
19. 4. 2019 20:00 283 -
19. 4. 2019 19:00 283 -
19. 4. 2019 18:00 282 -
19. 4. 2019 17:00 282 -
19. 4. 2019 16:00 282 -
19. 4. 2019 15:00 282 -
19. 4. 2019 14:00 282 -
19. 4. 2019 13:00 282 -
19. 4. 2019 12:00 282 -
19. 4. 2019 11:00 282 -

H - water level, Q - outflow

VD Orlík

Date and time (UTC) H (m n. m.) Q (m3/s)
19. 4. 2019 23:10 349 0
19. 4. 2019 23:00 349 0
19. 4. 2019 22:00 349 0
19. 4. 2019 21:00 349 0
19. 4. 2019 20:00 349 73
19. 4. 2019 19:00 349 74
19. 4. 2019 18:00 349 0
19. 4. 2019 17:00 349 0
19. 4. 2019 16:00 349 0
19. 4. 2019 15:00 349 0
19. 4. 2019 14:00 349 0
19. 4. 2019 13:00 349 0
19. 4. 2019 12:00 349 0
19. 4. 2019 11:00 349 0

H - water level, Q - outflow

VD Kořensko

Date and time (UTC) H (m n. m.) Q (m3/s)
19. 4. 2019 23:10 352 37
19. 4. 2019 23:00 352 37
19. 4. 2019 22:00 352 27
19. 4. 2019 21:00 352 32
19. 4. 2019 20:00 352 27
19. 4. 2019 19:00 352 24
19. 4. 2019 18:00 352 20
19. 4. 2019 17:00 352 20
19. 4. 2019 16:00 352 20
19. 4. 2019 15:00 352 19
19. 4. 2019 14:00 352 20
19. 4. 2019 13:00 352 20
19. 4. 2019 12:00 352 20
19. 4. 2019 11:00 352 19

H - water level, Q - outflow

VD Hněvkovice I - přehrada

Date and time (UTC) H (m n. m.) Q (m3/s)
- - -

H - water level, Q - outflow

České Budějovice

Date and time (UTC) H (cm) Q (m3/s)
19. 4. 2019 23:00 103 20
19. 4. 2019 22:00 104 21
19. 4. 2019 21:00 105 24
19. 4. 2019 20:00 106 25
19. 4. 2019 19:00 108 25
19. 4. 2019 18:00 107 27
19. 4. 2019 17:00 105 27
19. 4. 2019 16:00 107 27
19. 4. 2019 15:00 106 28
19. 4. 2019 14:00 106 27
19. 4. 2019 13:00 109 27
19. 4. 2019 12:00 107 28
19. 4. 2019 11:00 107 28

H - vodni stav, Q - discharge
more information
Source data
Labe Basin Vltava Basin ČHMÚ